YAMAL 601

Last updated on Tue Oct 08 2024 00:02:41 GMT+0000 (Coordinated Universal Time)

1 44307U 19031A 24281.21021626 .00000131 00000+0 00000+0 0 9992 2 44307 0.0176 188.1012 0002219 0.0946 312.8520 1.00271302 19724
UTC large
Height (km)
Speed (km/s)
/
Latitude / Longitude
Inclination (degrees)
Orbital Period (minutes)
Azimuth
Elevation
Range (km)
Doppler Factor

Next 0 passes for location: London (51.5072 / 0.1276)

Sorry there are no passes over London.